This demonstration page uses our WeatherBlox Daily Observations layout. Learn more.

Left ArrowRight Arrow

34.16533, -84.80231

Hourly Observations for July 5, 2022

Temp ( °F °C ) Dew Point ( °F °C ) Humidity (%) Winds ( mph kmh ) Pressure ( in mb ) Visibility ( mi km ) Precip ( " mm )
12:15 am 00:15 Cloudy with Thunderstorms 73 23 70 21 89 89 Calm 30.08 1019 3 5 0.00 0.00
12:35 am 00:35 Mostly Cloudy with Nearby Thunderstorms 73 23 72 22 94 94 Calm 30.08 1019 10 16 0.00 0.00
12:55 am 00:55 Mostly Clear with Nearby Thunderstorms 73 23 72 22 94 94 ESE 5 7 30.09 1019 10 16 0.22 5.59
1:15 am 01:15 Mostly Clear 73 23 73 23 100 100 SE 3 6 30.09 1019 10 16 0.00 0.00
1:35 am 01:35 Partly Cloudy with Nearby Thunderstorms 73 23 73 23 100 100 SE 13 20 30.11 1020 10 16 0.00 0.00
1:55 am 01:55 Mostly Cloudy 75 24 72 22 89 89 E 8 13 30.10 1019 10 16 0.00 0.00
2:15 am 02:15 Mostly Cloudy 75 24 72 22 89 89 Calm 30.08 1019 10 16 0.00 0.00
2:35 am 02:35 Mostly Clear 73 23 72 22 94 94 Calm 30.06 1018 10 16 0.00 0.00
2:55 am 02:55 Clear 73 23 73 23 100 100 Calm 30.06 1018 10 16 0.00 0.00
3:15 am 03:15 Clear 73 23 72 22 94 94 Calm 30.06 1018 10 16 0.00 0.00
3:35 am 03:35 Clear 73 23 72 22 94 94 Calm 30.06 1018 10 16 0.00 0.00
3:55 am 03:55 Mostly Clear 73 23 72 22 94 94 Calm 30.06 1018 10 16 0.00 0.00
4:15 am 04:15 Mostly Cloudy 73 23 72 22 94 94 S 5 7 30.07 1018 10 16 0.00 0.00
4:35 am 04:35 Mostly Cloudy 73 23 72 22 94 94 Calm 30.07 1018 10 16 0.00 0.00
4:55 am 04:55 Cloudy 73 23 72 22 94 94 E 3 6 30.07 1018 10 16 0.00 0.00
5:15 am 05:15 Cloudy 73 23 72 22 94 94 Calm 30.07 1018 10 16 0.00 0.00
5:35 am 05:35 Cloudy 73 23 72 22 94 94 ENE 3 6 30.08 1019 10 16 0.00 0.00
5:55 am 05:55 Cloudy 73 23 72 22 94 94 E 5 7 30.08 1019 10 16 0.00 0.00
6:15 am 06:15 Cloudy 73 23 72 22 94 94 Calm 30.08 1019 10 16 0.00 0.00
6:35 am 06:35 Cloudy 73 23 72 22 94 94 Calm 30.09 1019 7 11 0.00 0.00
6:55 am 06:55 Cloudy 73 23 72 22 94 94 Calm 30.09 1019 9 14 0.00 0.00
7:15 am 07:15 Mostly Sunny 75 24 72 22 89 89 Calm 30.10 1019 10 16 0.00 0.00
7:35 am 07:35 Sunny 75 24 73 23 94 94 Calm 30.10 1019 10 16 0.00 0.00
7:55 am 07:55 Sunny 75 24 73 23 94 94 Calm 30.10 1019 9 14 0.00 0.00
8:15 am 08:15 Sunny 77 25 73 23 89 89 Calm 30.10 1019 10 16 0.00 0.00
8:35 am 08:35 Sunny 77 25 73 23 89 89 Calm 30.11 1020 9 14 0.00 0.00
8:55 am 08:55 Sunny 77 25 73 23 89 89 Calm 30.12 1020 10 16 0.00 0.00
9:15 am 09:15 Sunny 79 26 75 24 89 89 Calm 30.12 1020 10 16 0.00 0.00
9:35 am 09:35 Mostly Sunny 81 27 75 24 84 84 E 5 7 30.10 1019 10 16 0.00 0.00
9:55 am 09:55 Mostly Sunny 82 28 75 24 79 79 SE 5 7 30.10 1019 10 16 0.00 0.00
10:15 am 10:15 Mostly Cloudy 82 28 75 24 79 79 ESE 5 7 30.10 1019 10 16 0.00 0.00
10:35 am 10:35 Mostly Cloudy 82 28 75 24 79 79 VRB 6 9 30.10 1019 10 16 0.00 0.00
10:55 am 10:55 Cloudy 84 29 75 24 74 74 VRB 3 6 30.09 1019 10 16 0.00 0.00
11:15 am 11:15 Cloudy 84 29 75 24 74 74 ESE 3 6 30.09 1019 10 16 0.00 0.00
11:35 am 11:35 Partly Cloudy 84 29 77 25 79 79 VRB 3 6 30.09 1019 10 16 0.00 0.00
11:55 am 11:55 Sunny 84 29 75 24 74 74 E 5 7 30.08 1019 10 16 0.00 0.00
12:15 pm 12:15 Sunny 86 30 77 25 75 75 VRB 5 7 30.08 1019 10 16 0.00 0.00
12:35 pm 12:35 Sunny 86 30 75 24 70 70 Calm 30.07 1018 10 16 0.00 0.00
12:55 pm 12:55 Sunny 86 30 75 24 70 70 ENE 3 6 30.06 1018 10 16 0.00 0.00
1:15 pm 13:15 Sunny 88 31 75 24 66 66 Calm 30.04 1017 10 16 0.00 0.00
1:35 pm 13:35 Sunny 88 31 75 24 66 66 E 3 6 30.04 1017 10 16 0.00 0.00
1:55 pm 13:55 Sunny 90 32 75 24 63 63 VRB 3 6 30.03 1017 10 16 0.00 0.00
2:15 pm 14:15 Sunny 90 32 73 23 59 59 Calm 30.02 1017 10 16 0.00 0.00
2:35 pm 14:35 Sunny 90 32 72 22 55 55 Calm 30.01 1016 10 16 0.00 0.00
2:55 pm 14:55 Partly Cloudy 91 33 73 23 56 56 Calm 30.00 1016 10 16 0.00 0.00
3:15 pm 15:15 Mostly Sunny 93 34 75 24 56 56 VRB 6 9 29.99 1015 10 16 0.00 0.00
3:35 pm 15:35 Sunny 93 34 73 23 53 53 VRB 3 6 29.98 1015 9 14 0.00 0.00
3:55 pm 15:55 Sunny 93 34 73 23 53 53 Calm 29.97 1015 10 16 0.00 0.00
4:15 pm 16:15 Sunny 91 33 73 23 56 56 Calm 29.96 1015 10 16 0.00 0.00
4:35 pm 16:35 Sunny 93 34 75 24 56 56 Calm 29.96 1014 10 16 0.00 0.00
4:55 pm 16:55 Mostly Sunny 93 34 75 24 56 56 VRB 3 6 29.95 1014 10 16 0.00 0.00
5:15 pm 17:15 Mostly Sunny 93 34 73 23 53 53 VRB 6 9 29.95 1014 10 16 0.00 0.00
5:35 pm 17:35 Sunny 95 35 73 23 50 50 SSE 7 11 29.94 1014 10 16 0.00 0.00
5:55 pm 17:55 Sunny 93 34 73 23 53 53 SSE 9 15 29.94 1014 10 16 0.00 0.00
6:15 pm 18:15 Sunny 93 34 73 23 53 53 VRB 5 7 29.95 1014 10 16 0.00 0.00
6:35 pm 18:35 Sunny 91 33 75 24 59 59 VRB 3 6 29.95 1014 10 16 0.00 0.00
6:55 pm 18:55 Sunny 88 31 75 24 66 66 WSW 5 7 29.96 1015 10 16 0.00 0.00
7:15 pm 19:15 Sunny with Nearby Thunderstorms 88 31 75 24 66 66 WSW 3 6 29.96 1015 10 16 0.00 0.00
7:35 pm 19:35 Sunny 86 30 75 24 70 70 W 5 7 29.97 1015 10 16 0.00 0.00
7:55 pm 19:55 Sunny 86 30 75 24 70 70 W 5 7 29.98 1015 10 16 0.00 0.00
8:15 pm 20:15 Sunny with Nearby Thunderstorms 86 30 75 24 70 70 Calm 29.98 1015 10 16 0.00 0.00
8:35 pm 20:35 Sunny with Nearby Thunderstorms 86 30 77 25 75 75 Calm 29.99 1015 10 16 0.00 0.00
8:55 pm 20:55 Clear with Nearby Thunderstorms 84 29 77 25 79 79 S 3 6 29.99 1016 10 16 0.00 0.00
9:15 pm 21:15 Clear 84 29 77 25 79 79 Calm 29.99 1016 10 16 0.00 0.00
9:35 pm 21:35 Mostly Clear 82 28 77 25 84 84 Calm 29.99 1016 10 16 0.00 0.00
9:55 pm 21:55 Clear 82 28 77 25 84 84 Calm 29.97 1015 10 16 0.00 0.00
10:15 pm 22:15 Clear 82 28 77 25 84 84 Calm 29.99 1016 10 16 0.00 0.00
10:35 pm 22:35 Hazy 82 28 77 25 84 84 Calm 30.01 1016 6 10 0.00 0.00
10:55 pm 22:55 Partly Cloudy 81 27 77 25 89 89 Calm 30.01 1016 10 16 0.00 0.00
11:15 pm 23:15 Mostly Clear 82 28 75 24 79 79 Calm 29.99 1016 10 16 0.00 0.00
11:35 pm 23:35 Clear 81 27 77 25 89 89 Calm 29.98 1015 10 16 0.00 0.00
11:55 pm 23:55 Clear 81 27 75 24 84 84 Calm 29.98 1015 10 16 0.00 0.00

Powered by AerisWeather